TimeCDT,TemperatureF,Dew PointF,Humidity,Sea Level PressureIn,VisibilityMPH,Wind Direction,Wind SpeedMPH,Gust SpeedMPH,PrecipitationIn,Events,Conditions,WindDirDegrees,DateUTC
12:15 AM,51.8,50.0,94,30.12,10.0,NNE,8.1,-,N/A,Rain,Light Rain,20,2013-04-17 05:15:00
12:35 AM,53.6,50.0,88,30.11,10.0,NE,8.1,-,N/A,Thunderstorm,Overcast,50,2013-04-17 05:35:00
12:55 AM,53.6,51.8,94,30.13,10.0,North,4.6,-,N/A,Rain-Thunderstorm,Light Thunderstorms and Rain,350,2013-04-17 05:55:00
1:15 AM,53.6,51.8,94,30.11,7.0,NE,10.4,-,N/A,Rain-Thunderstorm,Light Thunderstorms and Rain,50,2013-04-17 06:15:00
1:35 AM,53.6,51.8,94,30.11,7.0,ENE,5.8,-,0.01,Rain-Thunderstorm,Rain,60,2013-04-17 06:35:00
1:55 AM,53.6,51.8,94,30.10,7.0,Calm,Calm,-,N/A,Thunderstorm,Overcast,0,2013-04-17 06:55:00
2:15 AM,53.6,51.8,94,30.10,7.0,North,5.8,-,N/A,Thunderstorm,Overcast,360,2013-04-17 07:15:00
2:35 AM,53.6,51.8,94,30.09,10.0,ENE,4.6,-,0.01,Thunderstorm,Overcast,70,2013-04-17 07:35:00
2:55 AM,53.6,51.8,94,30.10,7.0,NNE,9.2,-,N/A,Thunderstorm,Thunderstorm,30,2013-04-17 07:55:00
3:15 AM,53.6,51.8,94,30.10,7.0,NE,8.1,-,N/A,Thunderstorm,Overcast,50,2013-04-17 08:15:00
3:35 AM,53.6,51.8,94,30.11,7.0,NE,5.8,-,N/A,Thunderstorm,Overcast,50,2013-04-17 08:35:00
3:55 AM,53.6,51.8,94,30.11,7.0,ENE,9.2,-,N/A,,Overcast,60,2013-04-17 08:55:00
4:15 AM,53.6,53.6,100,30.09,7.0,ENE,10.4,-,N/A,,Overcast,70,2013-04-17 09:15:00
4:35 AM,53.6,53.6,100,30.09,7.0,ENE,6.9,-,N/A,,Overcast,60,2013-04-17 09:35:00
4:55 AM,53.6,53.6,100,30.09,7.0,ENE,4.6,-,N/A,,Overcast,60,2013-04-17 09:55:00
5:15 AM,53.6,53.6,100,30.09,7.0,East,4.6,-,N/A,,Overcast,80,2013-04-17 10:15:00
5:35 AM,55.4,53.6,94,30.09,7.0,NE,5.8,-,N/A,Thunderstorm,Overcast,40,2013-04-17 10:35:00
5:55 AM,55.4,53.6,94,30.09,7.0,ENE,5.8,-,N/A,,Overcast,60,2013-04-17 10:55:00
6:15 AM,55.4,53.6,94,30.09,5.0,East,8.1,-,N/A,,Overcast,90,2013-04-17 11:15:00
6:35 AM,55.4,55.4,100,30.10,4.0,NNE,4.6,-,N/A,Thunderstorm,Overcast,20,2013-04-17 11:35:00
6:55 AM,55.4,55.4,100,30.11,4.0,NE,4.6,-,N/A,,Overcast,50,2013-04-17 11:55:00
7:15 AM,55.4,55.4,100,30.10,4.0,ENE,5.8,-,N/A,,Overcast,70,2013-04-17 12:15:00
7:35 AM,57.2,55.4,94,30.10,4.0,ENE,6.9,-,N/A,,Overcast,70,2013-04-17 12:35:00
7:55 AM,57.2,55.4,94,30.10,4.0,ENE,5.8,-,N/A,,Overcast,70,2013-04-17 12:55:00
8:15 AM,59.0,57.2,94,30.10,5.0,East,5.8,-,N/A,,Overcast,80,2013-04-17 13:15:00
8:35 AM,60.8,57.2,88,30.09,7.0,East,9.2,-,N/A,,Overcast,100,2013-04-17 13:35:00
8:55 AM,60.8,57.2,88,30.10,7.0,East,5.8,-,N/A,,Overcast,80,2013-04-17 13:55:00
9:15 AM,60.8,57.2,88,30.09,7.0,East,5.8,-,N/A,,Overcast,80,2013-04-17 14:15:00
9:35 AM,62.6,57.2,82,30.09,7.0,East,6.9,-,N/A,,Overcast,80,2013-04-17 14:35:00
9:55 AM,62.6,59.0,88,30.08,7.0,East,5.8,-,N/A,,Overcast,80,2013-04-17 14:55:00
10:15 AM,64.4,60.8,88,30.07,7.0,East,6.9,-,N/A,,Overcast,100,2013-04-17 15:15:00
10:35 AM,68.0,62.6,83,30.07,7.0,ESE,6.9,-,N/A,,Mostly Cloudy,120,2013-04-17 15:35:00
10:55 AM,71.6,62.6,73,30.06,7.0,SE,8.1,-,N/A,,Scattered Clouds,130,2013-04-17 15:55:00
11:15 AM,71.6,64.4,78,30.05,7.0,SE,9.2,-,N/A,,Scattered Clouds,140,2013-04-17 16:15:00
11:35 AM,71.6,64.4,78,30.04,5.0,SE,10.4,-,N/A,,Haze,130,2013-04-17 16:35:00
11:55 AM,75.2,66.2,73,30.04,5.0,SSE,9.2,-,N/A,,Haze,150,2013-04-17 16:55:00
12:15 PM,75.2,66.2,73,30.03,5.0,SE,9.2,-,N/A,,Haze,140,2013-04-17 17:15:00
12:35 PM,77.0,68.0,74,30.02,5.0,SE,9.2,-,N/A,,Haze,140,2013-04-17 17:35:00
12:55 PM,78.8,68.0,69,30.00,7.0,SE,8.1,-,N/A,,Clear,140,2013-04-17 17:55:00
1:15 PM,78.8,69.8,74,29.99,7.0,SSE,8.1,-,N/A,,Clear,160,2013-04-17 18:15:00
1:35 PM,82.4,69.8,66,29.98,7.0,SSE,8.1,-,N/A,,Clear,160,2013-04-17 18:35:00
1:55 PM,82.4,69.8,66,29.98,10.0,SSE,10.4,-,N/A,,Scattered Clouds,150,2013-04-17 18:55:00
2:15 PM,84.2,69.8,62,29.96,10.0,South,10.4,-,N/A,,Scattered Clouds,190,2013-04-17 19:15:00
2:35 PM,82.4,69.8,66,29.95,10.0,South,11.5,16.1,N/A,,Scattered Clouds,180,2013-04-17 19:35:00
2:55 PM,84.2,68.0,58,29.94,10.0,SSW,11.5,17.3,N/A,,Scattered Clouds,200,2013-04-17 19:55:00
3:35 PM,84.2,69.8,62,29.90,10.0,South,13.8,-,N/A,,Scattered Clouds,170,2013-04-17 20:35:00
3:55 PM,84.2,68.0,58,29.90,10.0,South,11.5,24.2,N/A,,Scattered Clouds,170,2013-04-17 20:55:00
4:15 PM,82.4,66.2,58,29.90,10.0,South,16.1,26.5,N/A,,Scattered Clouds,190,2013-04-17 21:15:00
4:35 PM,80.6,64.4,58,29.89,10.0,South,12.7,23.0,N/A,,Scattered Clouds,180,2013-04-17 21:35:00
4:55 PM,80.6,66.2,61,29.89,10.0,South,12.7,21.9,N/A,,Clear,190,2013-04-17 21:55:00
5:15 PM,80.6,66.2,61,29.87,10.0,South,15.0,19.6,N/A,,Clear,180,2013-04-17 22:15:00
5:35 PM,80.6,66.2,61,29.87,10.0,South,11.5,18.4,N/A,,Clear,170,2013-04-17 22:35:00
5:55 PM,82.4,66.2,58,29.88,10.0,South,10.4,16.1,N/A,,Clear,170,2013-04-17 22:55:00
6:15 PM,80.6,66.2,61,29.87,10.0,South,12.7,17.3,N/A,,Clear,170,2013-04-17 23:15:00
6:35 PM,80.6,66.2,61,29.87,10.0,South,12.7,-,N/A,,Clear,170,2013-04-17 23:35:00
6:55 PM,78.8,66.2,65,29.86,10.0,SSE,10.4,-,N/A,,Clear,160,2013-04-17 23:55:00
7:15 PM,78.8,66.2,65,29.85,10.0,SSE,10.4,-,N/A,,Clear,160,2013-04-18 00:15:00
7:35 PM,77.0,66.2,69,29.85,10.0,SE,9.2,-,N/A,,Clear,140,2013-04-18 00:35:00
7:55 PM,75.2,66.2,73,29.85,10.0,SSE,8.1,-,N/A,,Scattered Clouds,150,2013-04-18 00:55:00
8:15 PM,75.2,66.2,73,29.85,10.0,SSE,8.1,-,N/A,,Scattered Clouds,160,2013-04-18 01:15:00
8:35 PM,75.2,66.2,73,29.85,10.0,SSE,9.2,-,N/A,,Mostly Cloudy,150,2013-04-18 01:35:00
8:55 PM,75.2,66.2,73,29.83,10.0,SSE,9.2,-,N/A,,Scattered Clouds,150,2013-04-18 01:55:00
9:15 PM,75.2,66.2,73,29.83,10.0,SSE,10.4,-,N/A,,Mostly Cloudy,150,2013-04-18 02:15:00
9:35 PM,75.2,66.2,73,29.83,10.0,SE,9.2,-,N/A,,Mostly Cloudy,140,2013-04-18 02:35:00
9:55 PM,73.4,66.2,78,29.82,10.0,SE,10.4,-,N/A,,Scattered Clouds,130,2013-04-18 02:55:00
10:15 PM,73.4,66.2,78,29.82,10.0,SE,8.1,-,N/A,,Clear,130,2013-04-18 03:15:00
10:35 PM,71.6,64.4,78,29.81,10.0,SE,8.1,-,N/A,,Clear,130,2013-04-18 03:35:00
10:55 PM,71.6,64.4,78,29.82,10.0,SE,10.4,-,N/A,,Clear,140,2013-04-18 03:55:00
11:15 PM,71.6,64.4,78,29.80,10.0,SSE,9.2,-,N/A,,Scattered Clouds,150,2013-04-18 04:15:00
11:35 PM,71.6,64.4,78,29.79,10.0,SSE,10.4,-,N/A,,Clear,150,2013-04-18 04:35:00
11:55 PM,73.4,64.4,73,29.79,10.0,SSE,10.4,-,N/A,,Mostly Cloudy,150,2013-04-18 04:55:00